Location: Gleizolles
(44.4833°N, 6.7667°E)
Time: 00:00:13
(UTC+00:00)

Vanguard 2 Rocket - Pass Details

Date: 24 June 2024
Orbit: 555 x 3302 km, 32.9° (Epoch: 24 July)

Event Time Altitude Azimuth Distance (km) Brightness Sun altitude
Rises 07:16:20 0° 278° (W) 7,164 11.0 33.9°
Reaches altitude 10° 07:22:21 10° 269° (W) 5,902 10.6 34.9°
Maximum altitude 07:35:44 29° 219° (SW) 3,640 9.9 37.3°
Drops below altitude 10° 07:45:03 10° 165° (SSE) 4,030 10.5 39.0°
Sets 07:48:16 0° 153° (SSE) 4,648 10.9 39.5°
